map of OSH home
OSH - Airport
Location
City:  Oshkosh, Wisconsin, United States
Name:Wittman Regional
ICAO:KOSH
IATA:OSH
FAA LID:OSH

Details
Type:Airport (Airfield)
Use:Public/Civil
Latitude:4359'04"N (43.984491)
Longitude:8833'25"W (-88.556934)
Datum:WGS 1984
Elevation:808 ft (246 m)
Variation:3.54W (WMM2015 magnetic declination)
-0.05 annual change
Runways:4
Longest:8002 × 150 ft (2439 × 45.5 m), paved

Time
Time Zone:UTC-6 (DST-5)
Local Time:

Weather
METAR:KOSH 241105Z AUTO 00000KT 7SM BKN022 M04/M06 A3023 RMK AO2 T10391056

Related Locations
Nearby:
Farthest:MQZ: 10996 mi / 17697 km
Margaret River [Margaret River Airport], WA, AU

Find:

   beyond  
but within

Other Information
Maps:
Delays:
NOTAMs:
Links:
Sources:

  
flag of United States
flag of Wisconsin
  

Airport Diagram

Airport diagram for OSH

Airport diagram PDF

Sectional Chart

Flight Planning
at skyvector.com

Satellite Image

Google Maps Satellite view

 

Copyright © 2004-2018 Karl L. Swartz. All rights reserved.
The Great Circle Mapper name and logo are trademarks of the Great Circle Mapper.
All other trademarks mentioned herein belong to their respective owners.
Please see credits for attibutions and further copyright information.

  Follow gcmap on Facebook Follow gcmap on Twitter Follow gcmap on Google+ GCmap on LinkedIn

hCard Microformat

Geo Microformat